Stations météo

Publicité
Paris-Montsouris, France (7156): Température de l'air & dewpoint: 12.02.2020 07:00:00 - 18.02.2020 07:00:00 (CET)Paris-Montsouris, France (7156): Température de l'air 5cm: 12.02.2020 07:00:00 - 18.02.2020 07:00:00 (CET)Paris-Montsouris, France (7156): Température de l'air -20cm & Température de l'air -100cm: 12.02.2020 07:00:00 - 18.02.2020 07:00:00 (CET)Paris-Montsouris, France (7156): Vitesse du vent & gusts: 12.02.2020 07:00:00 - 18.02.2020 07:00:00 (CET)Paris-Montsouris, France (7156): Direction du vent: 12.02.2020 07:00:00 - 18.02.2020 07:00:00 (CET)Paris-Montsouris, France (7156): reduced air pressure: 12.02.2020 07:00:00 - 18.02.2020 07:00:00 (CET)Paris-Montsouris, France (7156): visibility: 12.02.2020 07:00:00 - 18.02.2020 07:00:00 (CET)Paris-Montsouris, France (7156): Ensoleillement: 12.02.2020 07:00:00 - 18.02.2020 07:00:00 (CET)Paris-Montsouris, France (7156): Quantités de précipitations: 12.02.2020 07:00:00 - 18.02.2020 07:00:00 (CET)
Date & Time tt [°C] td [°C] tt 5cm [°C] tt -20cm [°C] tt -100cm [°C] ff [km/h] ff [knt] fx [km/h] fx [knt] dd ppp [hPa] vv [km] sd [min] rr [mm]
18.02.2020 07:00:00 - - - - - - - - - - - - - -
18.02.2020 06:00:00 4,3 2,3 1,9 8,0 8,6 7 4 27 15 SSW 1027,9 20 0 -
18.02.2020 05:00:00 4,8 2,3 3,0 8,1 8,6 13 7 29 15 SW 1027,6 20 0 0,0
18.02.2020 04:00:00 5,4 2,4 3,2 8,3 8,6 10 5 31 17 WSW 1026,9 20 0 0,0
18.02.2020 03:00:00 5,6 2,2 3,6 8,4 8,6 15 8 43 23 WSW 1026,8 20 0 0,0
18.02.2020 02:00:00 6,0 2,5 3,5 8,5 8,6 17 9 37 20 WSW 1026,5 20 0 0,0
18.02.2020 01:00:00 6,0 2,5 3,6 8,6 8,6 12 7 35 19 WSW 1026,1 20 0 0,0
18.02.2020 00:00:00 6,3 2,6 4,1 8,7 8,5 14 8 35 19 W 1025,6 20 0 0,0
17.02.2020 23:00:00 6,6 2,9 4,0 8,9 8,5 14 8 35 19 WSW 1024,7 20 0 0,0
17.02.2020 22:00:00 7,1 3,0 5,2 8,9 8,5 11 6 43 23 W 1024,0 20 0 0,0
17.02.2020 21:00:00 7,7 3,0 6,1 9,0 8,5 14 8 48 26 W 1023,4 20 0 0,0
17.02.2020 20:00:00 8,3 3,5 5,3 9,1 8,5 22 12 39 21 W 1022,7 20 0 0,0
17.02.2020 19:00:00 7,8 4,0 5,2 9,1 8,5 11 6 44 24 W 1021,7 20 0 0,2
17.02.2020 18:00:00 10,1 4,0 7,4 9,1 8,5 22 12 49 26 W 1020,9 15 31 0,0
17.02.2020 17:00:00 10,9 1,7 10,5 9,0 8,5 20 11 49 26 W 1019,2 20 49 0,0
17.02.2020 16:00:00 11,5 3,8 11,4 8,9 8,5 16 9 54 29 WSW 1018,4 20 55 -
17.02.2020 15:00:00 12,2 2,1 11,9 8,8 8,5 30 16 63 34 W 1018,2 20 56 -
17.02.2020 14:00:00 12,7 3,6 12,0 8,7 8,5 27 15 57 31 W 1017,8 20 55 0,0
17.02.2020 13:00:00 12,0 5,2 11,2 8,7 8,5 22 12 61 33 W 1017,9 20 34 0,0
17.02.2020 12:00:00 11,1 4,5 10,1 8,7 8,5 29 16 59 32 WSW 1017,9 20 48 0,0
17.02.2020 11:00:00 10,0 6,0 8,3 8,7 8,5 22 12 51 28 WSW 1017,5 20 33 0,0
17.02.2020 10:00:00 8,8 6,6 8,0 8,8 8,5 18 10 39 21 SW 1017,0 20 0 0,0
17.02.2020 09:00:00 8,6 6,7 7,7 8,8 8,5 17 9 42 23 SW 1016,7 20 0 0,0
17.02.2020 08:00:00 8,6 7,2 7,7 8,9 8,5 11 6 29 15 SSW 1016,1 20 0 0,0
17.02.2020 07:00:00 8,6 6,9 7,8 8,9 8,5 13 7 24 13 SSW 1016,2 20 0 0,0
17.02.2020 06:00:00 8,6 6,7 7,6 9,0 8,5 9 5 23 12 SSW 1016,4 20 0 0,0
17.02.2020 05:00:00 8,5 6,6 7,4 9,0 8,5 9 5 26 14 SSW 1016,5 20 0 0,0
17.02.2020 04:00:00 8,8 6,4 7,8 9,1 8,5 14 7 31 17 SW 1016,3 20 0 0,0
17.02.2020 03:00:00 9,0 6,6 8,0 9,2 8,4 10 5 35 19 SW 1016,1 20 0 0,0
17.02.2020 02:00:00 9,0 6,6 7,4 9,2 8,5 12 6 43 23 WSW 1015,8 20 0 0,0
17.02.2020 01:00:00 9,0 6,8 7,7 9,3 8,5 13 7 39 21 WSW 1015,3 20 0 0,0
17.02.2020 00:00:00 9,0 7,0 8,1 9,3 8,4 18 10 43 23 WSW 1014,0 20 0 0,8
16.02.2020 23:00:00 9,0 7,6 8,0 9,4 8,5 13 7 42 23 WSW 1013,1 12 0 1,2
16.02.2020 22:00:00 9,3 7,6 8,2 9,4 8,4 19 11 50 27 W 1012,6 6 0 0,6
16.02.2020 21:00:00 9,5 8,1 8,7 9,3 8,5 20 11 64 35 WNW 1011,3 4,3 0 -
16.02.2020 20:00:00 13,5 9,0 10,9 9,3 8,4 24 13 69 37 W 1009,7 10 0 -
16.02.2020 19:00:00 16,4 10,5 14,8 9,2 8,4 34 18 80 43 SW 1007,4 20 0 0,0
16.02.2020 18:00:00 16,8 11,1 14,4 9,1 8,4 35 19 80 43 SW 1006,9 19 0 0,0
16.02.2020 17:00:00 17,7 10,3 17,0 9,0 8,4 30 16 87 47 SW 1006,4 20 0 -
16.02.2020 16:00:00 17,8 10,2 17,1 8,8 8,4 34 18 79 43 SW 1006,4 20 16 -
16.02.2020 15:00:00 18,0 10,4 18,4 8,6 8,4 37 20 96 52 SW 1006,8 20 46 -
16.02.2020 14:00:00 17,7 10,6 16,6 8,5 8,4 34 18 78 42 SW 1007,4 20 22 0,0
16.02.2020 13:00:00 16,1 10,0 16,0 8,4 8,4 32 17 86 47 SW 1008,3 20 0 0,0
16.02.2020 12:00:00 15,1 9,0 14,5 8,3 8,4 34 18 79 43 SW 1008,8 20 0 0,0
16.02.2020 11:00:00 14,4 8,1 14,2 8,3 8,4 31 17 76 41 SW 1009,1 20 20 0,0
16.02.2020 10:00:00 14,0 7,5 12,8 8,2 8,4 30 16 79 43 SW 1009,3 20 9 0,0
16.02.2020 09:00:00 13,3 6,9 12,4 8,2 8,4 31 17 66 35 SW 1010,2 20 0 0,0
16.02.2020 08:00:00 13,3 7,1 12,4 8,2 8,4 27 14 66 36 SSW 1010,3 20 0 0,0
16.02.2020 07:00:00 13,5 7,3 12,7 8,2 8,4 29 15 70 38 SSW 1010,5 20 0 0,0
16.02.2020 06:00:00 13,6 7,6 11,9 8,1 8,4 29 16 59 32 SW 1010,9 20 0 0,0
16.02.2020 05:00:00 13,5 7,7 12,0 8,1 8,4 25 14 67 36 SW 1011,4 20 0 0,0
16.02.2020 04:00:00 13,5 7,5 12,7 8,1 8,4 27 15 68 37 SW 1012,1 20 0 0,0
16.02.2020 03:00:00 13,5 7,7 11,9 8,1 8,4 26 14 59 32 SW 1012,7 20 0 0,0
16.02.2020 02:00:00 13,2 7,6 11,6 8,1 8,4 24 13 61 33 SW 1012,9 20 0 0,0
16.02.2020 01:00:00 13,2 7,4 12,0 8,0 8,4 25 14 59 32 SSW 1013,4 20 0 0,0
16.02.2020 00:00:00 13,1 7,3 12,0 8,1 8,4 26 14 60 33 SSW 1013,8 20 0 0,0
15.02.2020 23:00:00 12,9 7,3 11,7 8,0 8,4 24 13 55 30 SSW 1014,3 20 0 0,0
15.02.2020 22:00:00 12,4 7,5 9,7 8,0 8,4 21 11 54 29 SSW 1014,9 20 0 0,0
15.02.2020 21:00:00 11,6 7,5 9,4 8,0 8,4 14 8 49 27 SSW 1015,9 20 0 0,0
15.02.2020 20:00:00 11,5 7,8 9,4 8,0 8,4 17 9 50 27 SSW 1015,8 19 0 0,6
15.02.2020 19:00:00 12,6 7,1 10,6 8,0 8,4 23 12 51 27 SSW 1016,8 15 0 0,0
15.02.2020 18:00:00 12,6 6,8 11,7 7,9 8,4 18 10 37 20 SSW 1016,3 20 0 0,0
15.02.2020 17:00:00 12,8 7,0 12,1 7,8 8,4 13 7 36 19 SSW 1015,9 20 0 0,0
15.02.2020 16:00:00 13,0 7,0 13,0 7,6 8,4 17 9 47 25 S 1016,3 20 0 0,0
15.02.2020 15:00:00 13,4 7,4 13,8 7,4 8,4 13 7 40 22 SSW 1018,0 20 0 0,0
15.02.2020 14:00:00 13,9 7,2 15,0 7,2 8,4 16 9 49 26 SSW 1018,0 20 60 0,0
15.02.2020 13:00:00 13,4 7,6 12,2 7,1 8,4 19 10 42 23 SSW 1018,9 19 60 0,0
15.02.2020 12:00:00 11,1 6,8 11,2 7,1 8,4 14 7 32 17 S 1020,3 19 25 0,0
15.02.2020 11:00:00 10,0 6,7 10,7 7,1 8,4 15 8 34 19 S 1020,6 19 28 0,0
15.02.2020 10:00:00 8,7 6,3 6,9 7,1 8,4 14 8 31 17 SSW 1021,6 18 60 0,0
15.02.2020 09:00:00 7,2 5,5 5,8 7,1 8,4 16 9 30 16 S 1021,2 15 23 0,0
15.02.2020 08:00:00 7,1 5,2 5,5 7,2 8,4 12 6 28 15 SSW 1021,6 14 0 0,0
15.02.2020 07:00:00 7,1 5,1 5,9 7,2 8,4 9 5 18 10 SSW 1021,8 15 0 0,0
15.02.2020 06:00:00 6,5 4,8 5,0 7,3 8,4 7 4 25 14 SSW 1022,1 14 0 0,0
15.02.2020 05:00:00 6,6 4,6 4,8 7,4 8,4 16 9 26 14 SSW 1022,2 15 0 0,0
15.02.2020 04:00:00 6,6 4,4 4,9 7,5 8,4 10 6 24 13 SSW 1022,6 16 0 0,0
15.02.2020 03:00:00 6,7 4,4 4,5 7,6 8,4 9 5 26 14 S 1023,2 16 0 0,0
15.02.2020 02:00:00 7,2 4,5 5,5 7,6 8,4 11 6 21 11 S 1023,3 17 0 0,0
15.02.2020 01:00:00 7,8 4,7 6,0 7,7 8,4 10 6 24 13 SSW 1023,6 18 0 0,0
15.02.2020 00:00:00 8,4 5,0 6,8 7,8 8,4 12 7 24 13 S 1023,7 18 0 0,0
14.02.2020 23:00:00 8,9 5,3 7,0 7,8 8,4 10 6 22 12 S 1023,9 18 0 0,0
14.02.2020 22:00:00 9,2 5,6 6,2 7,9 8,4 9 5 21 11 S 1024,3 19 0 0,0
14.02.2020 21:00:00 9,3 5,7 6,1 7,9 8,4 8 5 18 10 SSW 1024,7 19 0 0,0
14.02.2020 20:00:00 9,9 5,7 7,3 8,0 8,4 7 4 18 10 S 1024,7 19 0 0,0
14.02.2020 19:00:00 10,4 5,6 7,5 7,9 8,4 8 5 21 11 SSW 1024,3 20 0 0,0
14.02.2020 18:00:00 11,0 5,3 9,5 7,9 8,4 12 6 32 17 SW 1023,7 20 0 0,0
14.02.2020 17:00:00 11,5 5,1 10,8 7,8 8,4 14 8 36 19 SW 1023,5 20 22 0,0
14.02.2020 16:00:00 11,9 5,1 12,3 7,7 8,4 16 8 34 18 SW 1023,6 20 50 0,0
14.02.2020 15:00:00 11,8 5,0 12,8 7,5 8,4 10 6 29 16 SW 1023,7 20 5 0,0
14.02.2020 14:00:00 11,4 4,8 12,1 7,4 8,4 13 7 28 15 WSW 1023,9 20 0 0,0
14.02.2020 13:00:00 11,0 5,5 11,8 7,3 8,4 10 5 26 14 SW 1024,0 20 0 0,0
14.02.2020 12:00:00 10,9 5,6 11,1 7,2 8,4 8 5 25 14 WSW 1024,5 20 0 0,0
14.02.2020 11:00:00 10,0 5,6 10,6 7,1 8,4 10 5 29 16 WSW 1023,8 20 7 0,0
14.02.2020 10:00:00 9,8 5,8 9,4 7,1 8,4 10 5 29 16 W 1023,0 20 30 0,0
14.02.2020 09:00:00 9,2 5,7 7,9 7,1 8,4 11 6 29 16 W 1022,5 20 31 0,0
14.02.2020 08:00:00 9,0 5,9 8,1 7,1 8,4 16 9 31 17 W 1021,3 19 0 0,0
14.02.2020 07:00:00 9,1 5,8 8,2 7,1 8,4 14 7 28 15 W 1020,2 19 0 0,0
14.02.2020 06:00:00 9,1 6,0 8,2 7,2 8,4 12 7 28 15 W 1019,3 20 0 0,0
14.02.2020 05:00:00 9,0 5,9 7,6 7,1 8,4 12 6 28 15 W 1018,2 20 0 0,0
14.02.2020 04:00:00 9,1 5,5 8,0 7,1 8,4 11 6 29 16 W 1017,6 19 0 0,0
14.02.2020 03:00:00 9,1 5,5 8,0 7,2 8,4 13 7 32 17 W 1017,2 20 0 0,0
14.02.2020 02:00:00 9,1 5,5 8,1 7,2 8,4 13 7 37 20 W 1016,1 20 0 0,0
14.02.2020 01:00:00 9,4 5,2 8,2 7,2 8,4 16 9 36 20 WNW 1015,3 20 0 0,0
14.02.2020 00:00:00 9,6 4,8 8,2 7,2 8,4 15 8 35 19 W 1013,9 20 0 0,0
13.02.2020 23:00:00 9,9 4,5 8,6 7,2 8,4 15 8 44 24 WNW 1012,5 20 0 0,0
13.02.2020 22:00:00 10,1 4,5 8,9 7,2 8,5 18 10 46 25 WNW 1010,8 20 0 0,0
13.02.2020 21:00:00 9,9 4,5 7,4 7,2 8,4 16 8 62 34 WNW 1009,1 20 0 0,0
13.02.2020 20:00:00 9,5 5,3 7,5 7,2 8,5 17 9 52 28 WNW 1007,3 15 0 0,0
13.02.2020 19:00:00 10,1 4,2 8,6 7,1 8,4 19 10 42 23 W 1005,0 20 0 0,0
13.02.2020 18:00:00 10,1 4,5 9,0 7,1 8,5 20 11 88 48 W 1002,8 20 32 0,0
13.02.2020 17:00:00 10,1 4,2 8,4 7,0 8,4 29 16 71 38 W 1001,3 20 26 0,0
13.02.2020 16:00:00 10,9 5,2 8,3 6,8 8,5 27 14 79 43 WSW 1000,3 12 2 0,2
13.02.2020 15:00:00 11,9 3,4 12,1 6,7 8,4 28 15 80 43 WSW 1000,4 20 21 0,0
13.02.2020 14:00:00 12,8 3,2 13,4 6,5 8,4 22 12 85 46 WSW 1000,9 20 54 0,0
13.02.2020 13:00:00 12,5 3,2 11,4 6,4 8,5 24 13 63 34 W 1001,9 20 60 0,0
13.02.2020 12:00:00 10,4 4,7 8,1 6,4 8,5 16 9 45 24 W 1002,6 20 22 0,0
13.02.2020 11:00:00 9,0 5,7 7,8 6,3 8,5 20 11 58 31 WSW 1002,8 20 0 1,8
13.02.2020 10:00:00 8,9 6,7 6,7 6,3 8,5 29 15 67 36 SW 1002,0 16 0 0,2
13.02.2020 09:00:00 7,7 5,3 5,8 6,3 8,5 25 13 65 35 SSW 1003,0 20 0 0,0
13.02.2020 08:00:00 7,0 4,6 5,3 6,3 8,5 23 13 52 28 SSW 1004,8 19 0 0,2
13.02.2020 07:00:00 6,9 3,3 6,0 6,3 8,5 20 11 47 25 SSW 1006,7 20 0 0,0
13.02.2020 06:00:00 6,5 3,3 5,7 6,4 8,5 21 11 40 22 S 1009,0 20 0 0,0
13.02.2020 05:00:00 6,1 3,3 5,0 6,4 8,5 14 8 36 19 SSW 1011,5 20 0 0,0
13.02.2020 04:00:00 5,6 2,9 4,1 6,5 8,5 16 8 31 17 S 1012,7 20 0 0,0
13.02.2020 03:00:00 5,3 2,8 3,8 6,5 8,5 11 6 28 15 SSW 1014,3 20 0 0,0
13.02.2020 02:00:00 5,2 3,0 2,1 6,6 8,5 10 6 21 12 S 1015,8 20 0 0,0
13.02.2020 01:00:00 5,6 2,8 3,0 6,7 8,5 9 5 21 11 S 1017,2 20 0 0,0
13.02.2020 00:00:00 6,1 2,9 3,5 6,7 8,5 11 6 22 12 SSE 1018,3 20 0 0,0
12.02.2020 23:00:00 6,8 3,0 5,7 6,8 8,5 11 6 20 11 S 1018,9 20 0 0,0
12.02.2020 22:00:00 7,0 3,2 4,4 6,8 8,5 9 5 17 9 S 1019,8 20 0 0,0
12.02.2020 21:00:00 6,9 2,6 3,3 6,9 8,5 8 4 16 9 S 1020,0 20 0 0,0
12.02.2020 20:00:00 7,1 2,0 3,4 6,9 8,5 9 5 18 10 SSW 1020,4 20 0 0,0
12.02.2020 19:00:00 7,0 1,3 3,3 6,9 8,5 7 4 15 8 SSW 1020,6 20 0 0,0
12.02.2020 18:00:00 8,0 1,4 5,1 6,9 8,5 8 4 16 9 W 1020,7 20 23 0,0
12.02.2020 17:00:00 8,6 1,5 8,0 6,8 8,5 8 4 31 17 W 1021,0 20 0 0,0
12.02.2020 16:00:00 9,4 0,8 9,5 6,6 8,5 16 9 47 26 W 1020,8 20 12 0,0
12.02.2020 15:00:00 9,6 0,5 9,9 6,5 8,5 17 9 60 33 WNW 1021,0 20 53 0,0
12.02.2020 14:00:00 9,7 1,1 9,7 6,4 8,5 19 11 59 32 W 1021,5 20 48 0,0
12.02.2020 13:00:00 8,9 2,0 9,0 6,3 8,5 18 10 44 24 W 1021,6 20 23 0,0
12.02.2020 12:00:00 8,5 2,5 7,9 6,2 8,4 16 9 45 24 W 1021,6 20 49 0,0
12.02.2020 11:00:00 7,3 2,6 6,3 6,3 8,5 15 8 34 19 W 1021,3 20 50 0,0
12.02.2020 10:00:00 5,5 2,1 3,4 6,4 8,5 16 9 37 20 WSW 1021,4 20 60 -
12.02.2020 09:00:00 4,5 1,7 2,7 6,5 8,5 10 5 28 15 SW 1021,1 20 12 -
12.02.2020 08:00:00 4,4 1,6 1,9 6,5 8,5 10 5 31 17 WSW 1020,5 20 0 -
12.02.2020 07:00:00 4,2 1,4 2,0 6,6 8,5 10 5 28 15 WSW 1020,3 20 0 -

tt = Température de l'air
td = dewpoint
tt 5cm = Température de l'air 5cm
tt -20cm = Température de l'air -20cm
tt -100cm = Température de l'air -100cm
ff = Vitesse du vent
fx = gusts
dd = Direction du vent
ppp = reduced air pressure
vv = visibility
sd = Ensoleillement
rr = Quantités de précipitations

stations d'obs. à proximité